Location: Taipo
(41.0000°S, 175.9500°E)
Time: 10:56:08
(UTC+00:00)

Cosmos 1420 Rocket - Pass Details

Date: 18 April 2024
Orbit: 752 x 779 km, 74.0° (Epoch: 25 May)

Event Time Altitude Azimuth Distance (km) Brightness Sun altitude
Exits shadow 16:48:58 - 352° (N) 3,282 7.1 -23.6°
Rises 16:49:03 0° 352° (N) 3,254 7.1 -23.6°
Reaches altitude 10° 16:51:26 10° 355° (N) 2,334 6.4 -23.1°
Maximum altitude 16:56:40 62° 75° (ENE) 882 4.5 -22.1°
Drops below altitude 10° 17:01:58 10° 154° (SSE) 2,357 6.9 -21.1°
Sets 17:04:23 0° 157° (SSE) 3,288 7.6 -20.7°
